This is the latest recevied weather packets stored in our database for station/object DC1MPP-9. If no packets are shown the sender has not sent any weather packets the latest 10 day(s).
| Time | Temp. | Humidity | Pressure | Rain* | Wind** | Luminosity | Snow |
|---|---|---|---|---|---|---|---|
| 1777623759 | 15° C | 33% | 969 hPa | - | - | - | - |
| 1777623518 | 15° C | 35% | 969 hPa | - | - | - | - |
| 1777623277 | 14.44° C | 34% | 969 hPa | - | - | - | - |
| 1777623036 | 14.44° C | 33% | 969 hPa | - | - | - | - |
| 1777622795 | 13.89° C | 33% | 969 hPa | - | - | - | - |
| 1777622554 | 13.89° C | 32% | 969 hPa | - | - | - | - |
| 1777622313 | 13.33° C | 32% | 969 hPa | - | - | - | - |
| 1777622072 | 13.33° C | 35% | 969 hPa | - | - | - | - |
| 1777621831 | 13.33° C | 34% | 969 hPa | - | - | - | - |
| 1777621590 | 13.33° C | 36% | 969 hPa | - | - | - | - |
| 1777621349 | 12.78° C | 34% | 969 hPa | - | - | - | - |
| 1777621108 | 12.78° C | 33% | 969 hPa | - | - | - | - |
| 1777620867 | 12.78° C | 36% | 969 hPa | - | - | - | - |
| 1777620626 | 12.22° C | 36% | 969 hPa | - | - | - | - |
| 1777620385 | 12.22° C | 34% | 969 hPa | - | - | - | - |
| 1777620144 | 12.22° C | 35% | 969 hPa | - | - | - | - |
| 1777619903 | 12.22° C | 37% | 969 hPa | - | - | - | - |
| 1777619662 | 12.22° C | 34% | 969 hPa | - | - | - | - |
| 1777619420 | 11.67° C | 35% | 969 hPa | - | - | - | - |
| 1777619179 | 11.67° C | 34% | 969 hPa | - | - | - | - |
| 1777618938 | 11.67° C | 35% | 969 hPa | - | - | - | - |
| 1777618697 | 11.67° C | 35% | 969 hPa | - | - | - | - |
| 1777618456 | 11.11° C | 35% | 969 hPa | - | - | - | - |
| 1777618215 | 11.67° C | 36% | 969 hPa | - | - | - | - |
| 1777617974 | 11.67° C | 37% | 969 hPa | - | - | - | - |
* Rain since midnight (hover to see other rain measurements)
** Current wind speed in m/s (hover to see current wind gust speed)